Location: Unspecified
(45.3712°N, 0.6436°E)
Time: 13:56:18
(UTC+02:00)

ISS - Pass Details

Date: 21 July 2018
Orbit: 402 x 408 km, 51.6° (Epoch: 21 July)

Event Time Altitude Azimuth Distance (km) Brightness Sun altitude
Rises 02:56:45 0° 296° (WNW) 2,329 0.2 -23.0°
Reaches altitude 10° 02:58:59 10° 307° (NW) 1,469 -0.7 -22.9°
Maximum altitude 03:01:58 31° 12° (NNE) 740 -1.9 -22.8°
Drops below altitude 10° 03:04:58 10° 77° (ENE) 1,469 -0.7 -22.7°
Sets 03:07:12 0° 88° (E) 2,329 0.3 -22.6°
